EW5822 Weather Reports


Display with metric or nautical units.
time (UTC)temp
F
wind
direction
speed
MPH
gust
MPH
rain 1hr
in
rain 24hr
in
rain mn
in
humidity
%
barometer
mb
20260509175403 78 207 10.0 19.0 0.00 0.00 0.00 39 1008.1
20260509174717 79 216 9.0 19.0 0.00 0.00 0.00 38 1008.3
20260509173603 78 228 6.0 12.0 0.00 0.00 0.00 39 1008.1
20260509172703 78 211 11.0 18.0 0.00 0.00 0.00 39 1008.2
20260509172014 78 206 12.0 18.0 0.00 0.00 0.00 39 1008.3
20260509171117 79 196 14.0 22.0 0.00 0.00 0.00 38 1008.2
20260509170214 79 220 10.0 20.0 0.00 0.00 0.00 37 1008.2
20260509165403 81 208 16.0 23.0 0.00 0.00 0.00 34 1008.2
20260509164503 81 204 15.0 22.0 0.00 0.00 0.00 35 1008.2
20260509163603 81 214 12.0 21.0 0.00 0.00 0.00 36 1008.0
20260509162703 80 212 12.0 21.0 0.00 0.00 0.00 37 1008.0
20260509162015 80 219 10.0 20.0 0.00 0.00 0.00 37 1008.0
20260509160903 79 225 10.0 18.0 0.00 0.00 0.00 36 1008.0
20260509160003 78 226 10.0 18.0 0.00 0.00 0.00 37 1008.0
20260509155616 78 222 11.0 20.0 0.00 0.00 0.00 37 1008.0
20260509154713 78 226 8.0 18.0 0.00 0.00 0.00 39 1008.0
20260509153603 77 220 12.0 17.0 0.00 0.00 0.00 37 1007.9
20260509152913 76 223 10.0 17.0 0.00 0.00 0.00 39 1007.9
20260509151803 75 241 8.0 17.0 0.00 0.00 0.00 41 1007.9
20260509150903 74 230 10.0 17.0 0.00 0.00 0.00 39 1007.9
20260509150215 74 222 9.0 15.0 0.00 0.00 0.00 43 1007.9
20260509145617 73 224 9.0 17.0 0.00 0.00 0.00 43 1007.9
20260509144503 72 217 9.0 14.0 0.00 0.00 0.00 46 1008.0
20260509143816 71 215 8.0 14.0 0.00 0.00 0.00 48 1008.0
20260509142914 69 205 8.0 12.0 0.00 0.00 0.00 52 1008.0
20260509142016 68 212 7.0 10.0 0.00 0.00 0.00 53 1008.1
20260509141113 66 203 9.0 11.0 0.00 0.00 0.00 56 1008.1
20260509140216 65 199 8.0 11.0 0.00 0.00 0.00 58 1008.1
20260509135612 64 206 9.0 12.0 0.00 0.00 0.00 60 1008.1
20260509134715 63 195 9.0 13.0 0.00 0.00 0.00 62 1008.2
20260509133603 60 187 7.0 12.0 0.00 0.00 0.00 68 1008.2
20260509132703 57 176 8.0 13.0 0.00 0.00 0.00 72 1008.3
20260509132017 56 163 7.0 12.0 0.00 0.00 0.00 76 1008.3
20260509131114 54 157 7.0 11.0 0.00 0.00 0.00 75 1008.2
20260509130003 53 120 2.0 7.0 0.00 0.00 0.00 79 1008.0
20260509125613 53 117 3.0 7.0 0.00 0.00 0.00 81 1007.9
20260509124715 52 134 3.0 7.0 0.00 0.00 0.00 80 1008.1
20260509123603 51 159 4.0 7.0 0.00 0.00 0.00 82 1007.8
20260509122703 50 292 2.0 5.0 0.00 0.00 0.00 84 1007.8
20260509121803 50 309 1.0 3.0 0.00 0.00 0.00 81 1007.7
20260509120904 49 310 0.0 2.0 0.00 0.00 0.00 83 1007.5
20260509120217 47 0 0.0 0.0 0.00 0.00 0.00 84 1007.5
20260509115614 47 267 1.0 5.0 0.00 0.00 0.00 83 1007.5
20260509114503 47 186 3.0 5.0 0.00 0.00 0.00 85 1007.5
20260509113813 46 186 3.0 5.0 0.00 0.00 0.00 87 1007.3
20260509112916 46 176 4.0 7.0 0.00 0.00 0.00 88 1007.4
20260509112013 46 158 6.0 11.0 0.00 0.00 0.00 88 1007.3
20260509111115 45 160 6.0 11.0 0.00 0.00 0.00 88 1007.4
20260509110213 45 156 4.0 9.0 0.00 0.00 0.00 86 1007.3
20260509105403 47 157 1.0 5.0 0.00 0.00 0.00 86 1007.2
20260509104503 47 157 2.0 5.0 0.00 0.00 0.00 87 1007.1
20260509103603 47 157 3.0 5.0 0.00 0.00 0.00 86 1007.1
20260509102916 47 157 3.0 5.0 0.00 0.00 0.00 87 1007.1
20260509102014 46 157 2.0 3.0 0.00 0.00 0.00 86 1007.3
20260509100903 46 157 2.0 5.0 0.00 0.00 0.00 85 1007.2
20260509100213 46 157 3.0 5.0 0.00 0.00 0.00 84 1007.3
20260509095615 46 157 3.0 7.0 0.00 0.00 0.00 85 1007.3
20260509094717 46 161 4.0 11.0 0.00 0.00 0.00 80 1007.3
20260509093815 48 317 3.0 5.0 0.00 0.00 0.00 81 1007.3
20260509092917 49 305 3.0 5.0 0.00 0.00 0.00 80 1007.2
20260509092014 49 302 2.0 3.0 0.00 0.00 0.00 79 1007.2
20260509090903 50 301 2.0 4.0 0.00 0.00 0.00 81 1007.3
20260509090003 50 301 2.0 4.0 0.00 0.00 0.00 80 1007.4
20260509085615 50 300 1.0 3.0 0.00 0.00 0.00 82 1007.4
20260509084503 49 298 1.0 5.0 0.00 0.00 0.00 83 1007.5
20260509083603 48 297 1.0 4.0 0.00 0.00 0.00 87 1007.4
20260509082912 47 288 2.0 6.0 0.00 0.00 0.00 86 1007.4
20260509081803 46 268 3.0 6.0 0.00 0.00 0.00 84 1007.7
20260509080903 47 203 2.0 4.0 0.00 0.00 0.00 83 1007.5
20260509080215 47 192 1.0 4.0 0.00 0.00 0.00 80 1007.5
20260509075616 49 170 1.0 4.0 0.00 0.00 0.00 77 1007.4
20260509074503 51 161 3.0 5.0 0.00 0.00 0.00 79 1007.3
20260509073603 51 161 1.0 2.0 0.00 0.00 0.00 76 1007.3
20260509072704 53 161 0.0 2.0 0.00 0.00 0.00 75 1007.3
20260509071803 54 161 0.0 1.0 0.00 0.00 0.00 74 1007.3
20260509071113 54 0 0.0 0.0 0.00 0.00 0.00 75 1007.3
20260509070003 54 160 1.0 2.0 0.00 0.00 0.00 75 1007.3
20260509065403 54 160 1.0 2.0 0.00 0.00 0.00 75 1007.3
20260509064503 54 160 2.0 2.0 0.00 0.00 0.00 74 1007.4
20260509063816 54 160 1.0 2.0 0.00 0.00 0.00 74 1007.4
20260509062914 54 160 3.0 5.0 0.00 0.00 0.00 74 1007.4
20260509061803 54 161 4.0 5.0 0.00 0.00 0.00 73 1007.4
20260509061113 55 161 5.0 6.0 0.00 0.00 0.00 73 1007.4
20260509060004 55 161 5.0 7.0 0.00 0.00 0.00 73 1007.5
20260509055617 55 161 5.0 6.0 0.00 0.00 0.00 72 1007.5
20260509054503 55 161 5.0 6.0 0.00 0.00 0.00 71 1007.4
20260509053817 56 161 5.0 6.0 0.00 0.00 0.00 71 1007.4
20260509052703 56 162 5.0 7.0 0.00 0.00 0.00 71 1007.3
20260509052017 56 164 6.0 8.0 0.00 0.00 0.00 70 1007.4
20260509051114 56 166 7.0 9.0 0.00 0.00 0.00 70 1007.4
20260509050004 56 162 7.0 8.0 0.00 0.00 0.00 70 1007.4
20260509045613 56 161 7.0 8.0 0.00 0.00 0.00 70 1007.4
20260509044715 56 160 7.0 8.0 0.00 0.00 0.00 69 1007.4
20260509043603 57 161 7.0 9.0 0.00 0.00 0.00 68 1007.4
20260509042703 58 160 6.0 9.0 0.00 0.00 0.00 68 1007.4
20260509041803 58 162 7.0 10.0 0.00 0.00 0.00 66 1007.4
20260509041115 58 159 7.0 10.0 0.00 0.00 0.00 66 1007.4
20260509040003 60 157 7.0 10.0 0.00 0.00 0.00 63 1007.4
20260509035403 61 156 8.0 10.0 0.00 0.00 0.00 62 1007.4
20260509034503 62 160 9.0 12.0 0.00 0.00 0.00 62 1007.3
20260509033813 62 160 10.0 15.0 0.00 0.00 0.00 62 1007.4
20260509032916 60 157 11.0 15.0 0.00 0.00 0.00 65 1007.2
20260509032013 58 149 10.0 13.0 0.00 0.00 0.00 69 1007.1
20260509030903 59 147 8.0 11.0 0.00 0.00 0.00 63 1007.1
20260509030003 60 157 5.0 8.0 0.00 0.00 0.00 63 1007.2
20260509025403 60 150 5.0 8.0 0.00 0.00 0.00 64 1007.1
20260509024717 60 139 5.0 7.0 0.00 0.00 0.00 64 1006.9
20260509023603 59 135 6.0 8.0 0.00 0.00 0.00 65 1006.8
20260509022703 60 129 9.0 11.0 0.00 0.00 0.00 62 1006.7
20260509021803 61 128 10.0 11.0 0.00 0.00 0.00 62 1006.6
20260509020903 61 127 10.0 11.0 0.00 0.00 0.00 61 1006.4
20260509020003 61 128 9.0 11.0 0.00 0.00 0.00 60 1006.3
20260509015615 62 131 8.0 10.0 0.00 0.00 0.00 59 1006.2
20260509014503 63 134 8.0 9.0 0.00 0.00 0.00 57 1006.2
20260509013814 64 134 8.0 10.0 0.00 0.00 0.00 56 1006.1
20260509012703 65 133 8.0 10.0 0.00 0.00 0.00 54 1005.9
20260509012014 66 133 8.0 9.0 0.00 0.00 0.00 53 1005.9
20260509010903 68 134 9.0 11.0 0.00 0.00 0.00 50 1005.9
20260509010004 70 133 9.0 11.0 0.00 0.00 0.00 49 1005.9
20260509005403 70 132 8.0 11.0 0.00 0.00 0.00 47 1005.9
20260509004503 71 146 6.0 8.0 0.00 0.00 0.00 46 1005.9
20260509003815 72 149 6.0 8.0 0.00 0.00 0.00 44 1005.8
20260509002912 73 143 5.0 8.0 0.00 0.00 0.00 42 1005.8
20260509002015 74 160 6.0 9.0 0.00 0.00 0.00 39 1005.8
20260509000903 75 149 6.0 9.0 0.00 0.00 0.00 37 1005.8
20260509000003 75 152 5.0 9.0 0.00 0.00 0.00 36 1005.9
20260508235403 75 129 4.0 7.0 0.00 0.00 0.00 37 1005.9
20260508234503 76 157 5.0 9.0 0.00 0.00 0.00 36 1006.0
20260508233816 76 180 3.0 8.0 0.00 0.00 0.00 35 1006.0
20260508232703 76 203 3.0 9.0 0.00 0.00 0.00 35 1006.1
20260508232015 76 209 2.0 4.0 0.00 0.00 0.00 35 1006.1
20260508231113 76 190 1.0 4.0 0.00 0.00 0.00 34 1006.1
20260508230215 75 149 3.0 8.0 0.00 0.00 0.00 36 1006.1
20260508225617 75 147 6.0 10.0 0.00 0.00 0.00 35 1006.1
20260508224503 76 142 2.0 9.0 0.00 0.00 0.00 35 1006.1
20260508223816 76 96 2.0 6.0 0.00 0.00 0.00 35 1006.1
20260508222704 76 336 3.0 9.0 0.00 0.00 0.00 35 1006.2
20260508221803 76 356 5.0 15.0 0.00 0.00 0.00 34 1006.3
20260508220903 77 317 4.0 8.0 0.00 0.00 0.00 35 1006.3
20260508220004 76 348 3.0 7.0 0.00 0.00 0.00 35 1006.4
20260508215403 76 267 2.0 9.0 0.00 0.00 0.00 38 1006.6
20260508214503 75 282 3.0 8.0 0.00 0.00 0.00 39 1006.7
20260508213817 75 271 4.0 9.0 0.00 0.00 0.00 37 1006.8
20260508212914 75 315 5.0 9.0 0.00 0.00 0.00 37 1006.9
20260508212017 75 104 2.0 7.0 0.00 0.00 0.00 40 1006.9
20260508210903 73 93 2.0 7.0 0.00 0.00 0.00 45 1007.0
20260508210003 73 34 3.0 6.0 0.00 0.00 0.00 46 1007.0
20260508205403 73 100 4.0 9.0 0.00 0.00 0.00 45 1007.0
20260508204503 72 141 5.0 10.0 0.00 0.00 0.00 49 1006.9
20260508203813 72 119 4.0 9.0 0.00 0.00 0.00 52 1006.9
20260508202703 71 105 5.0 8.0 0.00 0.00 0.00 49 1007.1
20260508202017 71 116 6.0 11.0 0.00 0.00 0.00 51 1007.0
20260508201115 71 112 8.0 13.0 0.00 0.00 0.00 53 1007.1
20260508200003 70 100 10.0 14.0 0.00 0.00 0.00 52 1007.1
20260508195614 70 95 10.0 14.0 0.00 0.00 0.00 52 1007.0
20260508194503 68 98 10.0 14.0 0.00 0.00 0.00 53 1007.1
20260508193603 68 99 10.0 15.0 0.00 0.00 0.00 53 1007.2
20260508192703 68 98 9.0 13.0 0.00 0.00 0.00 55 1007.1
20260508191803 67 101 11.0 16.0 0.00 0.00 0.00 54 1007.3
20260508191115 67 96 10.0 16.0 0.00 0.00 0.00 54 1006.9
20260508190213 65 101 9.0 13.0 0.00 0.00 0.00 55 1007.5
20260508185614 65 96 9.0 13.0 0.00 0.00 0.00 55 1007.3
20260508184504 66 62 7.0 11.0 0.00 0.00 0.00 56 1007.8
20260508183603 66 41 8.0 12.0 0.00 0.00 0.00 53 1007.9
20260508182703 66 37 9.0 13.0 0.00 0.00 0.00 52 1008.0
20260508181803 67 48 10.0 13.0 0.00 0.00 0.00 52 1007.7
20260508181116 67 39 10.0 14.0 0.00 0.00 0.00 52 1008.0
20260508180004 66 360 12.0 15.0 0.00 0.00 0.00 58 1008.0